JBU301 KFLL-KLAX

Flight info

Callsign JBU301
Flight time N/A
Altitude 30000
Route BNICE2 DOLIE Y280 LEV HOODO PSX SLENA KINEY DLF KOBLE ELP/N0458F320 J50 SSO J4 WLVRN ESTWD HLYWD1
Aircraft A321/M-SDE3FGHIRWY/LB1

Departure

Time N/A
Airport Fort Lauderdale Hollywood International Airport (KFLL)

Arrival

Time 2026-04-25 03:22
Airport Los Angeles International Airport (KLAX)
Time Latitude Longitude Altitude Speed Heading
2026-04-25 00:58 30.30557 -102.46313 31752 ft 380 kts 292°
2026-04-25 00:59 30.31703 -102.49066 31754 ft 380 kts 292°
2026-04-25 00:59 30.33991 -102.54576 31760 ft 379 kts 292°
2026-04-25 00:59 30.35138 -102.57343 31875 ft 383 kts 292°
2026-04-25 01:00 30.36292 -102.60121 32231 ft 382 kts 292°
2026-04-25 01:00 30.37446 -102.62889 32625 ft 381 kts 292°
2026-04-25 01:00 30.38595 -102.65644 33021 ft 379 kts 292°
2026-04-25 01:00 30.39735 -102.68386 33422 ft 377 kts 292°
2026-04-25 01:01 30.40867 -102.71119 33713 ft 376 kts 292°
2026-04-25 01:01 30.43114 -102.76561 33756 ft 373 kts 292°
2026-04-25 01:02 30.45333 -102.81950 33768 ft 373 kts 292°
2026-04-25 01:02 30.47589 -102.87423 33764 ft 374 kts 292°
2026-04-25 01:03 30.49816 -102.92826 33762 ft 375 kts 292°
2026-04-25 01:03 30.52064 -102.98280 33766 ft 375 kts 292°
2026-04-25 01:04 30.54306 -103.03745 33772 ft 375 kts 292°
2026-04-25 01:04 30.56547 -103.09215 33779 ft 375 kts 291°
2026-04-25 01:05 30.58786 -103.14693 33782 ft 376 kts 291°
2026-04-25 01:05 30.61028 -103.20170 33784 ft 376 kts 291°
2026-04-25 01:06 30.63266 -103.25644 33784 ft 376 kts 291°
2026-04-25 01:06 30.65499 -103.31127 33784 ft 375 kts 291°
2026-04-25 01:07 30.67731 -103.36609 33783 ft 375 kts 291°
2026-04-25 01:07 30.69946 -103.42056 33778 ft 375 kts 291°
2026-04-25 01:08 30.72176 -103.47548 33775 ft 376 kts 291°
2026-04-25 01:08 30.74396 -103.53041 33775 ft 376 kts 291°
2026-04-25 01:09 30.76619 -103.58550 33779 ft 376 kts 291°
2026-04-25 01:09 30.78847 -103.64070 33779 ft 377 kts 291°
2026-04-25 01:10 30.81078 -103.69591 33789 ft 378 kts 291°
2026-04-25 01:10 30.83309 -103.75123 33789 ft 378 kts 291°
2026-04-25 01:11 30.85531 -103.80660 33799 ft 378 kts 291°
2026-04-25 01:11 30.87755 -103.86202 33806 ft 378 kts 291°
2026-04-25 01:12 30.89975 -103.91748 33812 ft 378 kts 291°
2026-04-25 01:12 30.92182 -103.97261 33813 ft 378 kts 291°
2026-04-25 01:13 30.94404 -104.02815 33814 ft 378 kts 291°
2026-04-25 01:13 30.96622 -104.08375 33808 ft 379 kts 291°
2026-04-25 01:14 30.98839 -104.13950 33812 ft 379 kts 291°
2026-04-25 01:14 31.01055 -104.19525 33816 ft 379 kts 291°
2026-04-25 01:15 31.03269 -104.25104 33816 ft 379 kts 291°
2026-04-25 01:15 31.05479 -104.30685 33811 ft 379 kts 291°
2026-04-25 01:16 31.07687 -104.36267 33809 ft 379 kts 291°
2026-04-25 01:16 31.09900 -104.41847 33835 ft 379 kts 291°
2026-04-25 01:17 31.12093 -104.47391 33857 ft 379 kts 291°
2026-04-25 01:17 31.14292 -104.52978 33880 ft 379 kts 291°
2026-04-25 01:18 31.16490 -104.58558 33900 ft 379 kts 291°
2026-04-25 01:18 31.18686 -104.64143 33917 ft 378 kts 291°
2026-04-25 01:19 31.20880 -104.69725 33923 ft 378 kts 291°
2026-04-25 01:19 31.23069 -104.75303 33909 ft 377 kts 291°
2026-04-25 01:20 31.25243 -104.80877 33901 ft 377 kts 291°
2026-04-25 01:20 31.27412 -104.86449 33879 ft 377 kts 291°
2026-04-25 01:21 31.29580 -104.92017 33859 ft 376 kts 291°
2026-04-25 01:21 31.31751 -104.97587 33844 ft 376 kts 291°
2026-04-25 01:22 31.33913 -105.03148 33806 ft 376 kts 290°
2026-04-25 01:22 31.36075 -105.08712 33800 ft 375 kts 291°
2026-04-25 01:23 31.38234 -105.14273 33798 ft 375 kts 290°
2026-04-25 01:23 31.40371 -105.19796 33797 ft 375 kts 290°
2026-04-25 01:24 31.42517 -105.25360 33792 ft 375 kts 290°
2026-04-25 01:24 31.44654 -105.30927 33787 ft 375 kts 290°
2026-04-25 01:25 31.46787 -105.36494 33782 ft 375 kts 290°
2026-04-25 01:25 31.48928 -105.42064 33773 ft 375 kts 290°
2026-04-25 01:26 31.51073 -105.47641 33762 ft 376 kts 290°
2026-04-25 01:26 31.53222 -105.53226 33757 ft 376 kts 290°
2026-04-25 01:27 31.55364 -105.58824 33752 ft 377 kts 290°
2026-04-25 01:27 31.57505 -105.64434 33744 ft 377 kts 290°
2026-04-25 01:28 31.60711 -105.72859 33739 ft 378 kts 290°
2026-04-25 01:28 31.62851 -105.78492 33741 ft 378 kts 290°
2026-04-25 01:29 31.64996 -105.84129 33748 ft 378 kts 290°
2026-04-25 01:29 31.67136 -105.89768 33746 ft 378 kts 290°
2026-04-25 01:30 31.69250 -105.95367 33746 ft 377 kts 290°
2026-04-25 01:30 31.71379 -106.00998 33771 ft 377 kts 290°
2026-04-25 01:31 31.73498 -106.06616 33798 ft 376 kts 290°
2026-04-25 01:31 31.75614 -106.12233 33829 ft 375 kts 290°
2026-04-25 01:32 31.77723 -106.17839 33857 ft 375 kts 290°
2026-04-25 01:32 31.79821 -106.23440 33887 ft 374 kts 290°
2026-04-25 01:33 31.81597 -106.29155 33904 ft 371 kts 279°
2026-04-25 01:33 31.82123 -106.35169 33904 ft 370 kts 275°
2026-04-25 01:34 31.82580 -106.41197 33901 ft 370 kts 275°
2026-04-25 01:34 31.83037 -106.47184 33897 ft 369 kts 275°
2026-04-25 01:35 31.83489 -106.53239 33869 ft 371 kts 275°
2026-04-25 01:35 31.83935 -106.59242 33912 ft 371 kts 275°
2026-04-25 01:36 31.84377 -106.65287 33918 ft 371 kts 275°
2026-04-25 01:36 31.84818 -106.71328 33917 ft 371 kts 275°
2026-04-25 01:37 31.85256 -106.77372 33917 ft 371 kts 275°
2026-04-25 01:37 31.85691 -106.83421 33896 ft 371 kts 275°
2026-04-25 01:38 31.86054 -106.88446 33868 ft 371 kts 275°
2026-04-25 01:38 31.86489 -106.94502 33833 ft 372 kts 275°
2026-04-25 01:39 31.86922 -107.00563 33799 ft 372 kts 275°
2026-04-25 01:39 31.87346 -107.06625 33773 ft 372 kts 275°
2026-04-25 01:40 31.87767 -107.12645 33737 ft 372 kts 275°
2026-04-25 01:40 31.88187 -107.18702 33744 ft 372 kts 275°
2026-04-25 01:41 31.88606 -107.24768 33748 ft 372 kts 275°
2026-04-25 01:41 31.89022 -107.30835 33750 ft 372 kts 275°
2026-04-25 01:42 31.89428 -107.36902 33756 ft 372 kts 275°
2026-04-25 01:42 31.89836 -107.42969 33763 ft 372 kts 275°
2026-04-25 01:43 31.90245 -107.49036 33760 ft 372 kts 275°
2026-04-25 01:43 31.90654 -107.55096 33770 ft 372 kts 275°
2026-04-25 01:44 31.91055 -107.61165 33774 ft 372 kts 274°
2026-04-25 01:44 31.91451 -107.67234 33784 ft 372 kts 274°
2026-04-25 01:45 31.91837 -107.73259 33786 ft 371 kts 274°
2026-04-25 01:45 31.92471 -107.79291 33790 ft 373 kts 284°
2026-04-25 01:46 31.93894 -107.85168 33801 ft 373 kts 284°
2026-04-25 01:46 31.95309 -107.91040 33796 ft 373 kts 284°
2026-04-25 01:47 31.96717 -107.96923 33796 ft 373 kts 283°
2026-04-25 01:47 31.98123 -108.02810 33794 ft 373 kts 283°
2026-04-25 01:48 31.99530 -108.08700 33799 ft 373 kts 283°
2026-04-25 01:48 32.00935 -108.14589 33801 ft 373 kts 283°
2026-04-25 01:49 32.02332 -108.20481 33803 ft 373 kts 283°
2026-04-25 01:49 32.03717 -108.26330 33809 ft 373 kts 283°
2026-04-25 01:50 32.05119 -108.32252 33812 ft 373 kts 283°
2026-04-25 01:50 32.06514 -108.38140 33811 ft 372 kts 283°
2026-04-25 01:51 32.07894 -108.44020 33822 ft 372 kts 283°
2026-04-25 01:51 32.09262 -108.49859 33842 ft 372 kts 283°
2026-04-25 01:52 32.10643 -108.55734 33863 ft 372 kts 283°
2026-04-25 01:52 32.12019 -108.61601 33875 ft 371 kts 283°
2026-04-25 01:53 32.13386 -108.67477 33887 ft 371 kts 283°
2026-04-25 01:53 32.14750 -108.73354 33892 ft 371 kts 283°
2026-04-25 01:54 32.16113 -108.79228 33893 ft 371 kts 283°
2026-04-25 01:54 32.17474 -108.85104 33883 ft 371 kts 283°
2026-04-25 01:55 32.18836 -108.90977 33863 ft 371 kts 283°
2026-04-25 01:55 32.20191 -108.96845 33848 ft 371 kts 283°
2026-04-25 01:56 32.21539 -109.02723 33824 ft 371 kts 283°
2026-04-25 01:56 32.22885 -109.08565 33801 ft 371 kts 283°
2026-04-25 01:57 32.24908 -109.17389 33795 ft 371 kts 283°
2026-04-25 01:58 32.26251 -109.23277 33790 ft 371 kts 282°
2026-04-25 01:58 32.27904 -109.29059 33792 ft 373 kts 289°
2026-04-25 01:59 32.29896 -109.34721 33797 ft 373 kts 289°
2026-04-25 01:59 32.31882 -109.40394 33794 ft 373 kts 289°
2026-04-25 02:00 32.33745 -109.45734 33791 ft 373 kts 288°
2026-04-25 02:00 32.35746 -109.51486 33791 ft 373 kts 288°
2026-04-25 02:01 32.37623 -109.56867 33792 ft 373 kts 288°
2026-04-25 02:01 32.39603 -109.62550 33792 ft 373 kts 288°
2026-04-25 02:02 32.41573 -109.68237 33799 ft 373 kts 288°
2026-04-25 02:02 32.43523 -109.73888 33803 ft 373 kts 288°
2026-04-25 02:03 32.45503 -109.79610 33809 ft 374 kts 288°
2026-04-25 02:03 32.47472 -109.85303 33815 ft 374 kts 288°
2026-04-25 02:04 32.49424 -109.90963 33803 ft 374 kts 288°
2026-04-25 02:04 32.51387 -109.96661 33818 ft 374 kts 288°
2026-04-25 02:05 32.53347 -110.02365 33812 ft 374 kts 288°
2026-04-25 02:05 32.55304 -110.08073 33812 ft 374 kts 288°
2026-04-25 02:06 32.57255 -110.13783 33817 ft 374 kts 288°
2026-04-25 02:06 32.59199 -110.19485 33815 ft 373 kts 288°
2026-04-25 02:07 32.61149 -110.25194 33815 ft 373 kts 288°
2026-04-25 02:07 32.63094 -110.30901 33815 ft 373 kts 288°
2026-04-25 02:08 32.65024 -110.36574 33816 ft 373 kts 288°
2026-04-25 02:08 32.66975 -110.42316 33803 ft 373 kts 288°
2026-04-25 02:09 32.68895 -110.47989 33809 ft 373 kts 288°
2026-04-25 02:09 32.70826 -110.53706 33812 ft 373 kts 288°
2026-04-25 02:10 32.72752 -110.59426 33804 ft 373 kts 288°
2026-04-25 02:10 32.74679 -110.65144 33808 ft 373 kts 288°
2026-04-25 02:11 32.76603 -110.70864 33805 ft 373 kts 287°
2026-04-25 02:11 32.78521 -110.76577 33802 ft 373 kts 287°
2026-04-25 02:12 32.80440 -110.82306 33803 ft 373 kts 287°
2026-04-25 02:12 32.82348 -110.88023 33800 ft 372 kts 287°
2026-04-25 02:13 32.84258 -110.93745 33799 ft 372 kts 287°
2026-04-25 02:13 32.86172 -110.99467 33799 ft 372 kts 287°
2026-04-25 02:14 32.88068 -111.05152 33793 ft 372 kts 287°
2026-04-25 02:14 32.89966 -111.10877 33795 ft 372 kts 287°
2026-04-25 02:15 32.91860 -111.16604 33791 ft 372 kts 287°
2026-04-25 02:15 32.93753 -111.22322 33788 ft 372 kts 287°
2026-04-25 02:16 32.95647 -111.28045 33781 ft 371 kts 287°
2026-04-25 02:16 32.97534 -111.33767 33785 ft 371 kts 287°
2026-04-25 02:17 32.99423 -111.39489 33780 ft 371 kts 287°
2026-04-25 02:17 33.01301 -111.45210 33785 ft 371 kts 287°
2026-04-25 02:18 33.03173 -111.50934 33791 ft 371 kts 287°
2026-04-25 02:18 33.05049 -111.56656 33796 ft 370 kts 287°
2026-04-25 02:19 33.06915 -111.62378 33802 ft 370 kts 287°
2026-04-25 02:19 33.08769 -111.68061 33801 ft 370 kts 287°
2026-04-25 02:20 33.10630 -111.73780 33814 ft 370 kts 286°
2026-04-25 02:20 33.12484 -111.79492 33834 ft 370 kts 286°
2026-04-25 02:21 33.14343 -111.85213 33828 ft 369 kts 286°
2026-04-25 02:21 33.16188 -111.90932 33838 ft 369 kts 286°
2026-04-25 02:22 33.18036 -111.96642 33827 ft 369 kts 286°
2026-04-25 02:22 33.19880 -112.02360 33812 ft 369 kts 286°
2026-04-25 02:23 33.21721 -112.08082 33795 ft 369 kts 286°
2026-04-25 02:23 33.23562 -112.13803 33796 ft 369 kts 286°
2026-04-25 02:24 33.25401 -112.19527 33799 ft 369 kts 286°
2026-04-25 02:24 33.27218 -112.25215 33807 ft 369 kts 286°
2026-04-25 02:25 33.29042 -112.30936 33808 ft 368 kts 286°
2026-04-25 02:25 33.30868 -112.36657 33811 ft 369 kts 286°
2026-04-25 02:26 33.32691 -112.42386 33810 ft 369 kts 286°
2026-04-25 02:26 33.34507 -112.48117 33804 ft 369 kts 286°
2026-04-25 02:27 33.36325 -112.53856 33814 ft 369 kts 286°
2026-04-25 02:27 33.38144 -112.59598 33819 ft 369 kts 286°
2026-04-25 02:28 33.39961 -112.65345 33822 ft 369 kts 285°
2026-04-25 02:28 33.41777 -112.71087 33819 ft 369 kts 286°
2026-04-25 02:29 33.43596 -112.76838 33825 ft 369 kts 285°
2026-04-25 02:29 33.45411 -112.82591 33819 ft 369 kts 286°
2026-04-25 02:30 33.47371 -112.88296 33813 ft 371 kts 288°
2026-04-25 02:30 33.49438 -112.93917 33808 ft 371 kts 288°
2026-04-25 02:31 33.51501 -112.99585 33800 ft 371 kts 288°
2026-04-25 02:31 33.53532 -113.05270 33797 ft 371 kts 288°
2026-04-25 02:32 33.55555 -113.10949 33793 ft 371 kts 288°
2026-04-25 02:32 33.57582 -113.16636 33779 ft 371 kts 288°
2026-04-25 02:33 33.59601 -113.22324 33670 ft 371 kts 287°
2026-04-25 02:33 33.61620 -113.28013 33566 ft 371 kts 287°
2026-04-25 02:34 33.63640 -113.33705 33473 ft 371 kts 287°
2026-04-25 02:34 33.65310 -113.38435 33397 ft 371 kts 287°
2026-04-25 02:35 33.67318 -113.44136 33327 ft 371 kts 287°
2026-04-25 02:35 33.69325 -113.49838 33287 ft 371 kts 287°
2026-04-25 02:36 33.71327 -113.55540 33288 ft 370 kts 287°
2026-04-25 02:36 33.73331 -113.61244 33329 ft 370 kts 287°
2026-04-25 02:37 33.75329 -113.66951 33400 ft 371 kts 287°
2026-04-25 02:37 33.77323 -113.72653 33487 ft 371 kts 287°
2026-04-25 02:38 33.79316 -113.78369 33584 ft 371 kts 287°
2026-04-25 02:38 33.81296 -113.84091 33681 ft 371 kts 287°
2026-04-25 02:39 33.83245 -113.89829 33785 ft 370 kts 286°
2026-04-25 02:39 33.85184 -113.95572 33783 ft 371 kts 286°
2026-04-25 02:40 33.87130 -114.01307 33778 ft 371 kts 286°
2026-04-25 02:40 33.89078 -114.07048 33773 ft 370 kts 286°
2026-04-25 02:41 33.90786 -114.12815 33768 ft 365 kts 277°
2026-04-25 02:41 33.91792 -114.18794 33761 ft 364 kts 277°
2026-04-25 02:42 33.92811 -114.24772 33757 ft 364 kts 278°
2026-04-25 02:42 33.93830 -114.30752 33754 ft 365 kts 278°
2026-04-25 02:43 33.94841 -114.36738 33753 ft 365 kts 277°
2026-04-25 02:43 33.95845 -114.42732 33753 ft 365 kts 277°
2026-04-25 02:44 33.96848 -114.48718 33753 ft 365 kts 277°
2026-04-25 02:44 33.97854 -114.54711 33750 ft 365 kts 277°
2026-04-25 02:45 33.98851 -114.60693 33751 ft 364 kts 277°
2026-04-25 02:45 33.99845 -114.66679 33755 ft 364 kts 277°
2026-04-25 02:46 34.00838 -114.72653 33758 ft 363 kts 277°
2026-04-25 02:46 34.01821 -114.78571 33759 ft 362 kts 277°
2026-04-25 02:47 34.02799 -114.84520 33752 ft 362 kts 277°
2026-04-25 02:47 34.03766 -114.90469 33752 ft 361 kts 277°
2026-04-25 02:48 34.04733 -114.96417 33757 ft 362 kts 277°
2026-04-25 02:48 34.05710 -115.02364 33753 ft 361 kts 277°
2026-04-25 02:49 34.06685 -115.08307 33747 ft 361 kts 277°
2026-04-25 02:49 34.07650 -115.14251 33748 ft 361 kts 277°
2026-04-25 02:50 34.08615 -115.20190 33752 ft 361 kts 277°
2026-04-25 02:50 34.09575 -115.26143 33754 ft 361 kts 277°
2026-04-25 02:51 34.10529 -115.32090 33755 ft 361 kts 277°
2026-04-25 02:51 34.11485 -115.38037 33753 ft 361 kts 277°
2026-04-25 02:52 34.12435 -115.43988 33755 ft 361 kts 277°
2026-04-25 02:52 34.13381 -115.49901 33759 ft 361 kts 277°
2026-04-25 02:53 34.14328 -115.55859 33761 ft 361 kts 277°
2026-04-25 02:53 34.15267 -115.61805 33764 ft 361 kts 277°
2026-04-25 02:54 34.16163 -115.67765 33768 ft 359 kts 272°
2026-04-25 02:54 34.15936 -115.73732 33774 ft 356 kts 263°
2026-04-25 02:55 34.15360 -115.79668 33793 ft 356 kts 263°
2026-04-25 02:55 34.14782 -115.85604 33814 ft 356 kts 263°
2026-04-25 02:56 34.14204 -115.91533 33834 ft 356 kts 263°
2026-04-25 02:56 34.13632 -115.97465 33850 ft 356 kts 263°
2026-04-25 02:57 34.13055 -116.03398 33863 ft 356 kts 263°
2026-04-25 02:57 34.12473 -116.09328 33869 ft 356 kts 262°
2026-04-25 02:58 34.11884 -116.15251 33870 ft 355 kts 262°
2026-04-25 02:58 34.11327 -116.20860 33762 ft 357 kts 262°
2026-04-25 02:58 34.11030 -116.23838 33207 ft 359 kts 262°
2026-04-25 02:59 34.10732 -116.26832 32518 ft 359 kts 263°
2026-04-25 02:59 34.10436 -116.29820 31831 ft 359 kts 263°
2026-04-25 02:59 34.10136 -116.32808 31347 ft 360 kts 263°
2026-04-25 02:59 34.09815 -116.35860 30895 ft 373 kts 262°
2026-04-25 03:00 34.09477 -116.38996 30410 ft 380 kts 262°
2026-04-25 03:00 34.09130 -116.42181 29892 ft 386 kts 262°
2026-04-25 03:00 34.08781 -116.45410 29348 ft 390 kts 263°
2026-04-25 03:00 34.08432 -116.48666 28853 ft 392 kts 263°
2026-04-25 03:01 34.08082 -116.51918 28358 ft 390 kts 263°
2026-04-25 03:01 34.07730 -116.55153 27872 ft 387 kts 262°
2026-04-25 03:01 34.07383 -116.58319 27618 ft 375 kts 263°
2026-04-25 03:01 34.07057 -116.61396 27358 ft 366 kts 263°
2026-04-25 03:02 34.06768 -116.64427 27096 ft 363 kts 264°
2026-04-25 03:02 34.06498 -116.67441 26701 ft 361 kts 264°
2026-04-25 03:02 34.06233 -116.70438 26307 ft 359 kts 264°
2026-04-25 03:02 34.05969 -116.73394 25912 ft 358 kts 264°
2026-04-25 03:03 34.05700 -116.76365 25521 ft 356 kts 264°
2026-04-25 03:03 34.05425 -116.79328 25133 ft 355 kts 264°
2026-04-25 03:03 34.05146 -116.82278 24746 ft 353 kts 264°
2026-04-25 03:03 34.04868 -116.85211 24376 ft 351 kts 264°
2026-04-25 03:04 34.04590 -116.88131 23987 ft 350 kts 264°
2026-04-25 03:04 34.04288 -116.91043 23549 ft 350 kts 262°
2026-04-25 03:04 34.03930 -116.93943 23015 ft 349 kts 262°
2026-04-25 03:05 34.03149 -116.99677 22077 ft 344 kts 261°
2026-04-25 03:05 34.02761 -117.02514 21619 ft 342 kts 261°
2026-04-25 03:05 34.02392 -117.05327 21156 ft 339 kts 262°
2026-04-25 03:05 34.02049 -117.08130 20698 ft 337 kts 262°
2026-04-25 03:06 34.01721 -117.10916 20263 ft 334 kts 262°
2026-04-25 03:06 34.01402 -117.13680 19813 ft 332 kts 262°
2026-04-25 03:06 34.01082 -117.16428 19364 ft 330 kts 262°
2026-04-25 03:06 34.00760 -117.19161 18913 ft 328 kts 262°
2026-04-25 03:07 34.00438 -117.21878 18468 ft 326 kts 262°
2026-04-25 03:07 34.00118 -117.24570 17989 ft 324 kts 262°
2026-04-25 03:07 33.99798 -117.27253 17528 ft 323 kts 262°
2026-04-25 03:07 33.99483 -117.29897 17233 ft 315 kts 262°
2026-04-25 03:08 33.99173 -117.32499 16723 ft 313 kts 262°
2026-04-25 03:08 33.98869 -117.35087 16280 ft 310 kts 262°
2026-04-25 03:08 33.98570 -117.37647 15857 ft 307 kts 262°
2026-04-25 03:08 33.98274 -117.40182 15443 ft 305 kts 262°
2026-04-25 03:09 33.97979 -117.42697 15027 ft 303 kts 262°
2026-04-25 03:09 33.97685 -117.45201 14615 ft 301 kts 262°
2026-04-25 03:09 33.97389 -117.47695 14203 ft 300 kts 262°
2026-04-25 03:09 33.97269 -117.50190 14002 ft 299 kts 270°
2026-04-25 03:10 33.97310 -117.52702 13994 ft 301 kts 270°
2026-04-25 03:10 33.97349 -117.55227 14018 ft 302 kts 270°
2026-04-25 03:10 33.97386 -117.57740 13743 ft 299 kts 270°
2026-04-25 03:10 33.97424 -117.60237 13258 ft 298 kts 270°
2026-04-25 03:11 33.97461 -117.62727 12768 ft 297 kts 270°
2026-04-25 03:11 33.97497 -117.65180 12295 ft 297 kts 270°
2026-04-25 03:11 33.97534 -117.67663 11812 ft 295 kts 270°
2026-04-25 03:11 33.97572 -117.70130 11315 ft 291 kts 270°
2026-04-25 03:12 33.97607 -117.72502 11121 ft 278 kts 270°
2026-04-25 03:12 33.97640 -117.74808 10689 ft 274 kts 270°
2026-04-25 03:12 33.97670 -117.77102 10210 ft 273 kts 270°
2026-04-25 03:12 33.97699 -117.79385 9740 ft 273 kts 270°
2026-04-25 03:13 33.97729 -117.81669 9223 ft 272 kts 270°
2026-04-25 03:13 33.97759 -117.83946 8727 ft 271 kts 270°
2026-04-25 03:13 33.97789 -117.86211 8242 ft 270 kts 270°
2026-04-25 03:13 33.97818 -117.88474 7757 ft 269 kts 270°
2026-04-25 03:14 33.97844 -117.90725 7290 ft 268 kts 270°
2026-04-25 03:14 33.97869 -117.92966 6838 ft 267 kts 270°
2026-04-25 03:14 33.97895 -117.95194 6360 ft 265 kts 270°
2026-04-25 03:14 33.97921 -117.97415 5877 ft 264 kts 270°
2026-04-25 03:15 33.97947 -117.99622 5355 ft 263 kts 270°
2026-04-25 03:15 33.97972 -118.01828 4911 ft 264 kts 270°
2026-04-25 03:15 33.97993 -118.04040 4546 ft 263 kts 270°
2026-04-25 03:15 33.98015 -118.06195 4179 ft 264 kts 270°
2026-04-25 03:16 33.98037 -118.08391 4005 ft 262 kts 270°
2026-04-25 03:16 33.98109 -118.10601 4006 ft 265 kts 269°
2026-04-25 03:16 33.97995 -118.12777 4002 ft 253 kts 262°
2026-04-25 03:16 33.97783 -118.14814 3998 ft 237 kts 262°
2026-04-25 03:17 33.97599 -118.16577 3927 ft 223 kts 262°
2026-04-25 03:17 33.97415 -118.18390 3678 ft 213 kts 262°
2026-04-25 03:17 33.97241 -118.20123 3425 ft 203 kts 262°
2026-04-25 03:17 33.97077 -118.21757 3183 ft 193 kts 262°
2026-04-25 03:18 33.96918 -118.23337 2911 ft 188 kts 262°
2026-04-25 03:18 33.96762 -118.24890 2663 ft 186 kts 262°
2026-04-25 03:18 33.96607 -118.26427 2415 ft 184 kts 263°
2026-04-25 03:18 33.96455 -118.27930 2174 ft 182 kts 262°
2026-04-25 03:19 33.96307 -118.29392 1952 ft 166 kts 262°
2026-04-25 03:19 33.96177 -118.30681 1738 ft 148 kts 262°
2026-04-25 03:19 33.96055 -118.31879 1526 ft 141 kts 262°
2026-04-25 03:19 33.95937 -118.33040 1340 ft 139 kts 262°
2026-04-25 03:20 33.95820 -118.34188 1172 ft 138 kts 262°
2026-04-25 03:20 33.95709 -118.35340 994 ft 138 kts 263°
2026-04-25 03:20 33.95594 -118.36483 781 ft 137 kts 262°
2026-04-25 03:20 33.95477 -118.37608 632 ft 136 kts 262°
2026-04-25 03:21 33.95363 -118.38730 430 ft 135 kts 262°
2026-04-25 03:21 33.95248 -118.39849 226 ft 133 kts 262°
2026-04-25 03:21 33.95134 -118.40929 107 ft 119 kts 263°
2026-04-25 03:21 33.95054 -118.41723 108 ft 71 kts 263°
2026-04-25 03:22 33.95009 -118.42098 107 ft 26 kts 248°
2026-04-25 03:22 33.94923 -118.42215 103 ft 14 kts 224°
2026-04-25 03:22 33.94871 -118.42264 105 ft 9 kts 207°
2026-04-25 03:22 33.94772 -118.42282 106 ft 17 kts 175°
2026-04-25 03:23 33.94686 -118.42228 99 ft 16 kts 102°
2026-04-25 03:23 33.94697 -118.42105 98 ft 15 kts 83°
2026-04-25 03:23 33.94711 -118.41970 98 ft 17 kts 82°
2026-04-25 03:23 33.94724 -118.41823 98 ft 19 kts 83°
2026-04-25 03:24 33.94740 -118.41659 98 ft 20 kts 83°
2026-04-25 03:24 33.94758 -118.41493 101 ft 20 kts 83°
2026-04-25 03:24 33.94787 -118.41328 100 ft 21 kts 80°
2026-04-25 03:24 33.94805 -118.41170 100 ft 17 kts 83°
2026-04-25 03:25 33.94821 -118.41027 101 ft 17 kts 84°
2026-04-25 03:25 33.94834 -118.40880 99 ft 19 kts 83°
2026-04-25 03:25 33.94850 -118.40730 100 ft 18 kts 82°
2026-04-25 03:25 33.94866 -118.40578 100 ft 19 kts 83°
2026-04-25 03:26 33.94882 -118.40417 100 ft 16 kts 83°
2026-04-25 03:26 33.94886 -118.40336 99 ft 12 kts 98°
2026-04-25 03:26 33.94809 -118.40275 97 ft 15 kts 164°
2026-04-25 03:26 33.94721 -118.40263 97 ft 13 kts 177°
2026-04-25 03:27 33.94646 -118.40256 95 ft 9 kts 160°
2026-04-25 03:27 33.94617 -118.40210 95 ft 4 kts 120°
2026-04-25 03:27 33.94606 -118.40188 95 ft 0 kts 120°